Hourly Data Report for January 05, 2018

All times are specified in Local Standard Time (LST). Add 1 hour to adjust for Daylight Saving Time where and when it is observed.

OTTAWA INTL A
ONTARIO

45°19'00.000" N
75°40'00.000" W
114.90 m
6106001
71628
YOW

Download Data

Hourly Data (January 2018)
Hourly Data Report for January 5, 2018
Temp Definition
°C
Dew Point Temp Definition
°C
Rel Hum Definition
%
Wind Dir Definition
10's deg

Wind Spd Definition
km/h
Visibility Definition
km
Stn Press Definition
kPa
Hmdx Definition


Wind Chill Definition


Weather Definition


TIME
00:00 Legend Double Dagger -19.0 -23.1 70 30 32 24.1 99.07   -32 Blowing Snow
01:00 Legend Double Dagger -20.2 -24.1 71 30 38 24.1 99.02   -34 Blowing Snow
02:00 Legend Double Dagger -20.7 -24.7 71 30 41 24.1 99.02   -35 LegendNANA
03:00 Legend Double Dagger -21.9 -26.0 70 30 35 24.1 99.07   -36 Blowing Snow
04:00 Legend Double Dagger -22.7 -26.7 70 30 39 24.1 99.08   -38 Blowing Snow
05:00 Legend Double Dagger -23.2 -27.4 69 30 32 24.1 99.13   -37 Blowing Snow
06:00 Legend Double Dagger -23.7 -28.1 68 30 32 24.1 99.18   -38 Blowing Snow
07:00 Legend Double Dagger -24.1 -28.4 68 30 33 24.1 99.21   -38 Blowing Snow
08:00 Legend Double Dagger -24.4 -28.8 67 29 35 24.1 99.27   -39 Blowing Snow
09:00 Legend Double Dagger -24.0 -28.8 65 29 37 24.1 99.31   -39 Blowing Snow
10:00 Legend Double Dagger -23.5 -28.7 63 29 44 24.1 99.35   -39 Blowing Snow
11:00 Legend Double Dagger -22.8 -28.2 62 30 36 24.1 99.37   -37 Blowing Snow
12:00 Legend Double Dagger -22.3 -27.9 61 29 42 24.1 99.38   -37 Blowing Snow
13:00 Legend Double Dagger -22.0 -27.6 61 28 32 24.1 99.38   -36 Blowing Snow
14:00 Legend Double Dagger -22.4 -27.5 64 28 41 16.1 99.44   -37 Snow,Blowing Snow
15:00 Legend Double Dagger -22.1 -26.7 67 28 40 9.7 99.51   -37 Snow,Blowing Snow
16:00 Legend Double Dagger -21.9 -27.0 64 28 43 12.9 99.61   -37 Snow,Blowing Snow
17:00 Legend Double Dagger -21.7 -27.2 62 29 34 24.1 99.66   -35 Blowing Snow
18:00 Legend Double Dagger -21.7 -26.9 63 29 34 16.1 99.73   -35 Snow,Blowing Snow
19:00 Legend Double Dagger -22.0 -27.2 63 29 37 8.1 99.81   -36 Snow,Blowing Snow
20:00 Legend Double Dagger -22.7 -28.0 62 29 37 9.7 99.88   -37 Snow,Blowing Snow
21:00 Legend Double Dagger -23.4 -28.7 62 29 44 9.7 99.91   -39 Snow,Blowing Snow
22:00 Legend Double Dagger -23.8 -29.1 62 29 38 9.7 99.95   -39 Snow,Blowing Snow
23:00 Legend Double Dagger -24.2 -29.5 62 29 45 8.1 100.00   -40 Snow,Blowing Snow

Notes on Data Quality.

Legend

  • E = Estimated
  • M = Missing
  • NA = Not Available
  • ‡ = Partner data that is not subject to review by the National Climate Archives
Date modified: